K2MIT Weather Reports


Display with metric or nautical units.
time (UTC)temp
F
wind
direction
speed
MPH
gust
MPH
rain 1hr
in
rain 24hr
in
rain mn
in
humidity
%
barometer
mb
20260504181533 70 208 6.0 16.0 0.00 0.00 0.00 30 1010.1
20260504180030 70 200 6.0 15.0 0.00 0.00 0.00 30 1010.2
20260504174530 70 306 4.0 10.0 0.00 0.00 0.00 32 1010.3
20260504173034 69 255 5.0 15.0 0.00 0.00 0.00 31 1010.7
20260504171529 69 313 4.0 15.0 0.00 0.00 0.00 32 1010.9
20260504081535 51 242 2.0 7.0 0.00 0.00 0.00 46 1012.8
20260504044531 49 0 0.0 2.0 0.00 0.00 0.00 47 1012.1
20260504043032 50 199 0.0 2.0 0.00 0.00 0.00 47 1011.9
20260504041541 50 237 1.0 4.0 0.00 0.00 0.00 46 1011.8
20260504040040 50 0 0.0 2.0 0.00 0.00 0.00 45 1011.9
20260504034538 50 0 0.0 3.0 0.00 0.00 0.00 45 1011.8
20260504033030 50 223 1.0 3.0 0.00 0.00 0.00 46 1012.0
20260504031533 50 229 0.0 2.0 0.00 0.00 0.00 45 1011.9
20260504030035 49 0 0.0 0.0 0.00 0.00 0.00 51 1011.9
20260504024532 49 0 0.0 0.0 0.00 0.00 0.00 46 1011.9
20260504023030 49 0 0.0 2.0 0.00 0.00 0.00 48 1012.0
20260504021532 50 0 0.0 0.0 0.00 0.00 0.00 45 1011.9
20260504020037 50 0 0.0 0.0 0.00 0.00 0.00 44 1011.9
20260504014532 51 0 0.0 0.0 0.00 0.00 0.00 43 1011.9
20260504013040 52 0 0.0 0.0 0.00 0.00 0.00 40 1012.3
20260504011532 52 271 1.0 3.0 0.00 0.00 0.00 39 1011.6
20260504010032 53 0 0.0 1.0 0.00 0.00 0.00 39 1011.4
20260504004532 53 226 0.0 3.0 0.00 0.00 0.00 36 1011.3
20260504003029 54 271 0.0 2.0 0.00 0.00 0.00 34 1011.1
20260504001536 55 296 1.0 4.0 0.00 0.00 0.00 32 1010.7
20260504000028 56 294 1.0 6.0 0.00 0.00 0.00 32 1010.6
20260503234532 56 300 2.0 9.0 0.00 0.00 0.00 30 1010.3
20260503233030 57 275 3.0 7.0 0.00 0.00 0.00 29 1010.0
20260503231532 58 322 3.0 8.0 0.00 0.00 0.00 28 1009.9
20260503230038 58 252 5.0 9.0 0.00 0.00 0.00 27 1009.7
20260503224534 59 348 6.0 14.0 0.00 0.00 0.00 27 1009.5
20260503223030 59 286 3.0 9.0 0.00 0.00 0.00 25 1009.5
20260503221533 59 277 8.0 13.0 0.00 0.00 0.00 26 1009.6
20260503220030 59 287 5.0 15.0 0.00 0.00 0.00 25 1009.6
20260503214538 59 335 7.0 16.0 0.00 0.00 0.00 25 1009.8
20260503213029 59 265 4.0 15.0 0.00 0.00 0.00 25 1009.6
20260503211530 59 313 5.0 18.0 0.00 0.00 0.00 25 1009.4
20260503210033 59 338 5.0 13.0 0.00 0.00 0.00 26 1009.7
20260503204530 59 294 5.0 13.0 0.00 0.00 0.00 26 1010.2
20260503203035 59 275 4.0 22.0 0.00 0.00 0.00 27 1009.4
20260503201530 58 323 6.0 13.0 0.00 0.00 0.00 28 1009.6
20260503200031 57 13 5.0 17.0 0.00 0.00 0.00 28 1009.5
20260503194538 56 322 5.0 17.0 0.00 0.00 0.00 31 1009.6
20260503193044 55 216 7.0 22.0 0.00 0.00 0.00 30 1009.9
20260503191601 57 300 2.0 14.0 0.00 0.00 0.00 31 1009.8
20260503190036 55 37 4.0 20.0 0.00 0.00 0.00 34 1010.1
20260503184536 56 334 5.0 13.0 0.00 0.00 0.00 32 1010.5
20260503183035 55 336 8.0 20.0 0.00 0.00 0.00 34 1010.5